KM4NDN Weather Reports


time (UTC)temp
C
wind
direction
speed
KPH
gust
KPH
rain 1hr
cm
rain 24hr
cm
rain mn
cm
humidity
%
barometer
mb
20260502152340 5 47 1.6 3.2 0.00 0.43 0.43 73 1016.5
20260502151838 5 57 1.6 4.8 0.00 0.43 0.43 75 1016.7
20260502151334 5 11 4.8 6.4 0.00 0.43 0.43 74 1016.8
20260502150832 5 32 8.0 11.3 0.00 0.43 0.43 73 1016.6
20260502150328 5 62 1.6 4.8 0.00 0.43 0.43 75 1016.6
20260502130716 4 352 11.3 12.9 0.00 0.43 0.43 78 1015.6
20260502130214 4 14 6.4 16.1 0.00 0.43 0.43 77 1015.7
20260502123700 4 14 6.4 6.4 0.00 0.43 0.43 78 1015.6
20260502123156 4 32 3.2 11.3 0.00 0.43 0.43 79 1015.7
20260502122652 4 5 6.4 11.3 0.00 0.43 0.43 79 1015.7
20260502122149 4 47 4.8 12.9 0.00 0.43 0.43 80 1015.6
20260502121648 4 20 4.8 6.4 0.00 0.43 0.43 81 1015.7
20260502121145 4 1 3.2 9.7 0.00 0.43 0.43 80 1015.8
20260502120641 4 35 3.2 11.3 0.00 0.43 0.43 79 1015.6
20260502120138 4 353 6.4 12.9 0.00 0.43 0.43 80 1015.6
20260502115636 4 1 6.4 9.7 0.00 0.43 0.43 81 1015.5
20260502115131 3 10 3.2 6.4 0.00 0.43 0.43 81 1015.6
20260502114627 3 16 4.8 6.4 0.00 0.43 0.43 82 1015.6
20260502114125 3 347 8.0 9.7 0.00 0.43 0.43 83 1015.4
20260502113623 3 18 4.8 4.8 0.00 0.43 0.43 84 1015.5
20260502113121 3 12 6.4 6.4 0.00 0.43 0.43 85 1015.5
20260502112618 3 345 4.8 4.8 0.00 0.43 0.43 84 1015.5
20260502112115 3 15 4.8 9.7 0.00 0.43 0.43 84 1015.4
20260502111613 3 15 8.0 9.7 0.00 0.43 0.43 85 1015.5
20260502111110 3 11 3.2 3.2 0.00 0.43 0.43 86 1015.3
20260502110608 3 14 3.2 9.7 0.00 0.43 0.43 86 1015.3
20260502110105 3 5 4.8 6.4 0.00 0.43 0.43 88 1015.3
20260502105602 3 3 3.2 4.8 0.00 0.43 0.43 88 1015.2
20260502105100 3 4 1.6 4.8 0.00 0.43 0.43 88 1015.2
20260502104556 3 358 4.8 4.8 0.00 0.43 0.43 88 1015.0
20260502104054 3 357 6.4 9.7 0.00 0.43 0.43 89 1014.9
20260502103552 3 9 4.8 4.8 0.00 0.43 0.43 90 1015.1
20260502103050 3 4 1.6 4.8 0.00 0.43 0.43 91 1015.1
20260502102545 3 354 3.2 4.8 0.00 0.43 0.43 91 1014.9
20260502102043 3 10 1.6 4.8 0.00 0.43 0.43 91 1015.0
20260502101541 3 12 3.2 4.8 0.00 0.43 0.43 91 1015.0
20260502101039 3 15 3.2 4.8 0.00 0.43 0.43 91 1014.7
20260502100537 3 16 1.6 4.8 0.00 0.43 0.43 92 1015.0
20260502091512 3 10 6.4 12.9 0.00 0.43 0.43 91 1014.5
20260502091009 3 23 6.4 6.4 0.00 0.43 0.43 91 1014.7
20260502090506 3 31 12.9 14.5 0.00 0.43 0.43 91 1014.3
20260502071400 3 175 3.2 3.2 0.00 0.43 0.43 95 1014.2
20260502070858 3 173 3.2 3.2 0.00 0.43 0.43 95 1014.0
20260502070356 3 173 1.6 1.6 0.00 0.43 0.43 95 1014.1
20260502065855 3 173 1.6 1.6 0.00 0.43 0.43 95 1014.1
20260502065352 3 173 1.6 1.6 0.00 0.43 0.43 95 1014.2
20260502064850 3 173 0.0 0.0 0.00 0.43 0.43 95 1014.2
20260502064348 3 173 0.0 1.6 0.00 0.43 0.43 95 1014.4
20260502063844 3 173 1.6 3.2 0.00 0.43 0.43 95 1014.2
20260502063343 3 172 0.0 1.6 0.00 0.43 0.43 95 1014.2
20260502062840 3 173 3.2 3.2 0.00 0.43 0.43 95 1014.3
20260502062337 3 173 1.6 3.2 0.00 0.43 0.43 94 1014.3
20260502061836 3 173 1.6 1.6 0.00 0.43 0.43 94 1014.3
20260502061333 3 172 0.0 0.0 0.00 0.43 0.43 94 1014.4
20260502060829 3 172 0.0 0.0 0.00 0.43 0.43 94 1014.4
20260502060324 3 172 0.0 0.0 0.00 0.43 0.43 93 1014.4
20260502055822 3 173 0.0 1.6 0.00 0.43 0.43 93 1014.6
20260502055320 3 173 3.2 3.2 0.00 0.43 0.43 93 1014.7
20260502054819 3 170 4.8 4.8 0.18 0.43 0.43 92 1014.6
20260502054316 3 48 3.2 4.8 0.18 0.43 0.43 92 1014.5
20260502053814 3 109 1.6 3.2 0.43 0.41 0.41 92 1014.6
20260502053311 4 111 1.6 3.2 0.89 0.41 0.41 92 1014.6
20260502052808 4 197 0.0 1.6 0.89 0.33 0.33 92 1015.0
20260502052306 4 213 1.6 3.2 0.79 0.23 0.23 91 1015.0
20260502051804 4 212 4.8 4.8 0.79 0.18 0.18 90 1015.0
20260502051303 4 138 0.0 0.0 0.61 0.10 0.10 90 1015.0
20260502050758 5 138 1.6 3.2 0.30 0.05 0.05 90 1015.1
20260502050254 5 83 0.0 1.6 0.00 0.00 0.00 90 1014.9
20260502045752 5 83 0.0 1.6 0.00 0.00 0.00 90 1014.8
20260502045248 5 76 3.2 6.4 0.00 0.00 0.00 90 1015.0
20260502044745 5 86 1.6 4.8 0.00 0.00 0.00 90 1014.9
20260502044241 5 66 3.2 9.7 0.00 0.00 0.00 90 1014.8
20260502043739 5 63 6.4 6.4 0.00 0.00 0.00 90 1014.7
20260502043236 5 72 1.6 4.8 0.00 0.00 0.00 90 1014.9
20260502042736 5 46 4.8 9.7 0.00 0.00 0.00 90 1014.7
20260502042233 5 60 8.0 12.9 0.00 0.00 0.00 91 1014.9
20260502041731 5 44 3.2 11.3 0.00 0.00 0.00 91 1015.0
20260502041228 5 52 3.2 4.8 0.00 0.00 0.00 92 1014.8
20260502040725 5 3 6.4 6.4 0.00 0.00 0.00 93 1014.9
20260502040222 4 142 1.6 1.6 0.00 0.00 0.00 93 1014.8
20260502035718 4 232 0.0 1.6 0.00 1.75 1.75 93 1014.8
20260502035215 4 233 0.0 1.6 0.00 1.75 1.75 93 1014.8
20260502034712 4 281 3.2 4.8 0.00 1.75 1.75 93 1014.7
20260502034210 3 214 1.6 3.2 0.00 1.75 1.75 93 1014.6
20260502033708 3 193 3.2 4.8 0.00 1.75 1.75 93 1014.5
20260502033206 3 170 3.2 3.2 0.00 1.75 1.75 93 1014.3
20260502032702 3 169 1.6 3.2 0.00 1.75 1.75 93 1014.3
20260502032158 3 174 4.8 4.8 0.00 1.75 1.75 92 1014.3
20260502031656 3 172 3.2 4.8 0.00 1.75 1.75 92 1014.3
20260502031153 3 179 4.8 6.4 0.00 1.75 1.75 91 1014.3
20260502030652 4 186 3.2 3.2 0.00 1.75 1.75 90 1014.3
20260502030150 4 194 3.2 3.2 0.00 1.75 1.75 89 1014.2
20260502025647 4 196 3.2 4.8 0.00 1.75 1.75 88 1014.3
20260502025145 4 207 6.4 6.4 0.00 1.75 1.75 88 1014.2
20260502024642 4 205 4.8 4.8 0.00 1.75 1.75 88 1014.3
20260502024140 4 202 4.8 4.8 0.00 1.75 1.75 88 1014.1
20260502023638 5 212 1.6 3.2 0.00 1.75 1.75 87 1014.2
20260502023135 5 212 3.2 3.2 0.00 1.75 1.75 86 1014.2
20260502022632 5 236 6.4 6.4 0.18 1.75 1.75 85 1014.1
20260502022129 5 222 4.8 4.8 0.48 1.75 1.75 84 1014.3
20260502021626 5 199 6.4 11.3 0.43 1.73 1.73 85 1014.4
20260502021123 5 225 9.7 20.9 0.30 1.68 1.68 84 1014.4
20260502020621 5 249 16.1 24.1 0.36 1.65 1.65 86 1014.5
20260502020117 5 241 9.7 14.5 0.18 1.63 1.63 87 1014.7
20260502015615 5 284 9.7 12.9 0.00 1.60 1.60 88 1014.7
20260502015111 5 240 3.2 6.4 0.00 1.60 1.60 89 1014.3
20260502014609 5 286 3.2 4.8 0.13 1.60 1.60 89 1014.5
20260502014106 5 308 1.6 6.4 0.13 1.60 1.60 89 1014.3
20260502013601 5 272 3.2 6.4 0.18 1.57 1.57 88 1014.2
20260502013057 5 296 1.6 6.4 0.30 1.57 1.57 87 1014.1
20260502012555 5 273 3.2 12.9 0.30 1.55 1.55 86 1014.2
20260502012053 5 278 8.0 12.9 0.30 1.52 1.52 84 1014.1
20260502011549 6 314 14.5 20.9 0.00 1.47 1.47 80 1014.1
20260502011045 6 225 3.2 3.2 0.30 1.47 1.47 81 1013.7
20260502010543 6 214 3.2 3.2 0.30 1.45 1.45 81 1013.8
20260502010039 6 254 1.6 3.2 0.18 1.42 1.42 82 1013.8
20260502005537 7 240 3.2 3.2 0.00 1.40 1.40 79 1013.8
20260502005035 7 240 3.2 3.2 0.00 1.40 1.40 79 1013.6
20260502004530 7 222 3.2 3.2 0.00 1.40 1.40 78 1013.6
20260502004027 7 222 3.2 4.8 0.00 1.40 1.40 78 1013.4
20260502003525 7 221 3.2 3.2 0.00 1.40 1.40 77 1013.4
20260502003021 7 221 3.2 3.2 0.00 1.40 1.40 77 1013.6
20260502002518 7 221 3.2 3.2 0.00 1.40 1.40 77 1013.4
20260502002015 7 221 3.2 3.2 0.00 1.40 1.40 74 1013.3
20260502001513 7 221 3.2 3.2 0.00 1.40 1.40 74 1013.5
20260502001010 7 221 3.2 3.2 0.00 1.40 1.40 74 1013.5
20260502000509 7 221 3.2 3.2 0.00 1.40 1.40 74 1013.4
20260502000005 7 221 3.2 3.2 0.00 1.40 1.40 74 1013.2
20260501235501 7 202 3.2 3.2 0.00 1.40 1.40 74 1013.1
20260501234955 7 208 3.2 3.2 0.00 1.40 1.40 74 1013.0
20260501234452 7 203 6.4 6.4 0.00 1.40 1.40 73 1013.1
20260501233951 7 223 3.2 4.8 0.00 1.40 1.40 73 1013.1
20260501233449 7 219 3.2 3.2 0.00 1.40 1.40 72 1013.0
20260501232944 7 220 6.4 4.8 0.00 1.40 1.40 71 1013.2
20260501232441 7 217 6.4 6.4 0.00 1.40 1.40 70 1013.0
20260501231938 7 196 0.0 1.6 0.00 1.40 1.40 70 1013.1
20260501231437 7 194 1.6 3.2 0.00 1.40 1.40 69 1013.0
20260501230935 7 215 4.8 4.8 0.00 1.40 1.40 69 1013.2
20260501230434 7 230 3.2 3.2 0.00 1.40 1.40 70 1013.1
20260501225930 7 227 4.8 6.4 0.00 1.40 1.40 68 1013.1
20260501225428 7 272 6.4 6.4 0.00 1.40 1.40 67 1013.2
20260501224923 7 242 3.2 4.8 0.00 1.40 1.40 66 1013.1
20260501224421 7 262 3.2 4.8 0.00 1.40 1.40 67 1013.1
20260501223918 7 245 6.4 9.7 0.00 1.40 1.40 67 1013.0
20260501223414 7 256 3.2 4.8 0.00 1.40 1.40 66 1013.1
20260501222910 7 240 1.6 4.8 0.00 1.40 1.40 68 1013.0
20260501222408 7 238 4.8 4.8 0.00 1.40 1.40 69 1013.3
20260501221903 7 244 3.2 3.2 0.00 1.40 1.40 68 1012.9
20260501221401 8 275 4.8 6.4 0.00 1.40 1.40 66 1013.2
20260501220859 7 226 4.8 6.4 0.00 1.40 1.40 66 1013.0
20260501220356 8 261 6.4 9.7 0.00 1.40 1.40 66 1012.9
20260501215852 8 309 4.8 9.7 0.00 1.40 1.40 66 1013.0
20260501215349 8 240 4.8 9.7 0.00 1.40 1.40 67 1013.0
20260501214845 7 281 8.0 9.7 0.00 1.40 1.40 67 1012.9
20260501214340 7 272 4.8 6.4 0.00 1.40 1.40 66 1013.0
20260501213836 7 233 3.2 6.4 0.00 1.40 1.40 68 1012.9
20260501213333 7 257 6.4 6.4 0.00 1.40 1.40 67 1012.9
20260501212828 7 218 0.0 3.2 0.00 1.40 1.40 70 1012.9
20260501212325 7 217 1.6 3.2 0.00 1.40 1.40 69 1012.7
20260501211822 7 258 3.2 3.2 0.00 1.40 1.40 70 1012.8
20260501211320 7 280 4.8 4.8 0.00 1.40 1.40 70 1013.1
20260501210817 7 284 6.4 6.4 0.00 1.40 1.40 70 1012.9
20260501210314 7 297 3.2 6.4 0.00 1.40 1.40 70 1012.8
20260501205810 7 314 8.0 9.7 0.00 1.40 1.40 71 1012.8
20260501205307 7 26 4.8 6.4 0.00 1.40 1.40 69 1012.7
20260501204804 7 262 4.8 4.8 0.00 1.40 1.40 70 1012.7
20260501204300 7 272 4.8 4.8 0.00 1.40 1.40 75 1012.7
20260501203756 7 282 1.6 1.6 0.00 1.40 1.40 73 1012.7
20260501203254 7 294 4.8 6.4 0.00 1.40 1.40 74 1012.5
20260501202751 7 265 3.2 3.2 0.00 1.40 1.40 75 1012.6
20260501202248 7 300 3.2 4.8 0.00 1.40 1.40 77 1012.6
20260501201745 7 320 4.8 6.4 0.00 1.40 1.40 76 1012.4
20260501201242 6 327 1.6 3.2 0.00 1.40 1.40 79 1012.4
20260501200738 6 322 6.4 6.4 0.00 1.40 1.40 79 1012.4
20260501200235 6 290 6.4 9.7 0.00 1.40 1.40 80 1012.5
20260501195732 6 315 4.8 6.4 0.00 1.40 1.40 81 1012.5
20260501195228 6 300 4.8 6.4 0.00 1.40 1.40 82 1012.7
20260501194725 6 303 3.2 11.3 0.00 1.40 1.40 82 1012.5
20260501194220 6 308 6.4 6.4 0.00 1.40 1.40 84 1012.7
20260501193717 6 300 6.4 6.4 0.00 1.40 1.40 85 1012.6
20260501193216 6 320 4.8 11.3 0.00 1.40 1.40 85 1012.6
20260501192714 6 310 4.8 6.4 0.00 1.40 1.40 86 1012.7
20260501192210 6 333 6.4 9.7 0.00 1.40 1.40 87 1012.3
20260501191707 6 323 8.0 9.7 0.00 1.40 1.40 88 1012.7
20260501191204 6 322 4.8 6.4 0.00 1.40 1.40 89 1012.5
20260501190701 5 297 3.2 6.4 0.00 1.40 1.40 87 1012.7
20260501190156 5 309 4.8 9.7 0.00 1.40 1.40 88 1012.5
20260501185652 5 351 8.0 12.9 0.30 1.40 1.40 88 1012.3
20260501185148 5 320 4.8 12.9 0.30 1.40 1.40 88 1012.4
20260501184645 6 29 11.3 14.5 0.00 1.35 1.35 85 1012.4
20260501184144 6 343 11.3 12.9 0.00 1.35 1.35 84 1012.4
20260501183642 6 10 9.7 12.9 0.00 1.35 1.35 82 1012.2
20260501183138 7 21 12.9 16.1 0.00 1.35 1.35 80 1012.1
20260501182635 7 35 8.0 17.7 0.00 1.35 1.35 80 1012.0
20260501182131 6 42 8.0 12.9 0.00 1.35 1.35 80 1011.9
20260501181629 7 22 8.0 12.9 0.00 1.35 1.35 80 1011.9
20260501181125 6 17 9.7 12.9 0.00 1.35 1.35 81 1011.8
20260501180624 6 36 11.3 14.5 0.00 1.35 1.35 81 1011.6
20260501180119 7 47 8.0 17.7 0.00 1.35 1.35 81 1011.5
20260501175617 7 22 11.3 16.1 0.00 1.35 1.35 80 1011.7
20260501175113 6 31 11.3 16.1 0.00 1.35 1.35 81 1011.7
20260501174610 6 358 16.1 20.9 0.00 1.35 1.35 81 1011.8
20260501174108 6 10 11.3 14.5 0.00 1.35 1.35 81 1011.9
20260501173605 6 31 14.5 14.5 0.00 1.35 1.35 83 1011.5
20260501173101 6 357 9.7 12.9 0.00 1.35 1.35 85 1011.8
20260501172557 6 338 11.3 17.7 0.00 1.35 1.35 84 1011.8
20260501172053 6 4 9.7 17.7 0.00 1.35 1.35 84 1011.7
20260501171549 6 16 9.7 20.9 0.00 1.35 1.35 85 1011.6
20260501171046 6 16 9.7 12.9 0.00 1.35 1.35 87 1011.5
20260501170543 6 19 11.3 14.5 0.00 1.35 1.35 86 1011.7
20260501170040 5 21 6.4 20.9 0.00 1.35 1.35 87 1011.5
20260501165537 5 13 9.7 17.7 0.13 1.35 1.35 89 1011.4
20260501165035 5 30 9.7 12.9 0.13 1.35 1.35 88 1011.4
20260501164532 6 31 6.4 9.7 0.00 1.32 1.32 89 1011.4
20260501164029 6 334 11.3 14.5 0.18 1.32 1.32 89 1011.3
20260501163526 6 15 9.7 12.9 0.18 1.32 1.32 89 1011.4
20260501163022 5 41 6.4 6.4 0.18 1.30 1.30 90 1011.3
20260501162519 5 33 3.2 6.4 0.30 1.30 1.30 90 1011.4
20260501162016 5 40 3.2 6.4 0.30 1.27 1.27 89 1011.3
20260501161513 5 19 11.3 12.9 0.18 1.24 1.24 89 1011.4
20260501161009 5 12 8.0 11.3 0.00 1.22 1.22 89 1011.4
20260501160507 5 32 6.4 9.7 0.13 1.22 1.22 90 1011.4
20260501160003 5 16 3.2 9.7 0.13 1.22 1.22 90 1011.3
20260501155500 5 41 3.2 6.4 0.00 1.19 1.19 90 1011.0